Location: Unspecified
(0.0000°N, 0.0000°E)
Time: 15:15:30
(UTC+02:00)

NOSS 3-3 (A) - Visible Passes

Search period start: 25 August 2016 00:00
Search period end: 04 September 2016 00:00
Orbit: 928 x 1285 km, 63.4° (Epoch: 23 August)

Date Brightness Start Highest point End Pass type
(mag) Time Alt. Az. Time Alt. Az. Time Alt. Az.
25 Aug 4.5 06:26:57 10° NNW 06:34:57 89° ENE 06:42:57 10° SSE visible
26 Aug 5.2 05:42:36 10° N 05:50:18 53° ENE 05:57:59 10° SE visible
26 Aug 5.6 07:35:26 10° WNW 07:41:06 21° WSW 07:46:46 10° SSW visible
27 Aug 6.1 04:58:54 10° N 05:05:36 30° ENE 05:12:19 10° SE visible
27 Aug 5.0 06:49:10 10° NW 06:56:24 38° WSW 07:03:37 10° S visible
28 Aug 6.7 04:20:03 16° ENE 04:20:52 16° ENE 04:25:23 10° E visible
28 Aug 4.4 06:07:58 34° NW 06:11:43 66° WSW 06:19:37 10° SSE visible
29 Aug 4.9 05:28:41 59° SE 05:28:41 59° SE 05:35:01 10° SSE visible
29 Aug 5.9 07:16:21 13° W 07:17:57 14° WSW 07:21:43 10° SW visible
30 Aug 6.5 04:47:51 18° SE 04:47:51 18° SE 04:49:49 10° SE visible
30 Aug 5.6 06:35:27 23° SW 06:35:27 23° SW 06:39:36 10° SSW visible
31 Aug 6.0 05:53:55 20° S 05:53:55 20° S 05:56:04 10° S visible
